Voltar ao catálogo

CMS-01

AtivoComunicaçõesGEO
NORAD 47256·PAYLOAD·🇮🇳 India

Lançado Dec 17, 2020 de Satish Dhawan Space Centre

Loading…

TLE

AtualizadoSource: Space-Track

Época: Sep 14, 2026, 14:11 UTC

1 47256U 20099A   26257.59156774 -.00000173  00000-0  00000-0 0  9992
2 47256   0.0432  96.9575 0004817 157.5450  35.0279  1.00272663 21098

Acompanhe CMS-01 em tempo real com AllMySat

Download on the App Store